| time (UTC) | temp F | wind direction | speed MPH | gust MPH | rain 1hr in | rain 24hr in | rain mn in | humidity % | barometer mb |
| 20260508144536 | 63 | 217 | 8.0 | 11.0 | 0.00 | 0.00 | 0.00 | 71 | 1004.0 |
| 20260508143027 | 61 | 208 | 8.0 | 10.0 | 0.00 | 0.00 | 0.00 | 75 | 1004.1 |
| 20260508141522 | 60 | 189 | 6.0 | 10.0 | 0.00 | 0.00 | 0.00 | 79 | 1004.0 |
| 20260508140010 | 59 | 209 | 6.0 | 9.0 | 0.00 | 0.00 | 0.00 | 84 | 1004.1 |
| 20260508134507 | 57 | 205 | 6.0 | 9.0 | 0.00 | 0.00 | 0.00 | 87 | 1004.0 |
| 20260508133007 | 56 | 198 | 5.0 | 11.0 | 0.00 | 0.00 | 0.00 | 88 | 1004.1 |
| 20260508131506 | 55 | 193 | 6.0 | 11.0 | 0.00 | 0.00 | 0.00 | 88 | 1003.9 |
| 20260508130005 | 56 | 195 | 8.0 | 13.0 | 0.00 | 0.00 | 0.00 | 87 | 1003.8 |
| 20260508124503 | 56 | 157 | 5.0 | 9.0 | 0.00 | 0.00 | 0.00 | 87 | 1003.8 |
| 20260508123003 | 56 | 167 | 5.0 | 8.0 | 0.00 | 0.00 | 0.00 | 88 | 1003.7 |
| 20260508121504 | 54 | 159 | 2.0 | 7.0 | 0.00 | 0.00 | 0.00 | 89 | 1003.7 |
| 20260508120003 | 55 | 157 | 3.0 | 7.0 | 0.00 | 0.00 | 0.00 | 89 | 1003.8 |
| 20260508114504 | 55 | 130 | 1.0 | 7.0 | 0.00 | 0.00 | 0.00 | 89 | 1003.7 |
| 20260508113001 | 55 | 98 | 1.0 | 7.0 | 0.00 | 0.00 | 0.00 | 91 | 1003.7 |
| 20260508111603 | 55 | 98 | 2.0 | 6.0 | 0.00 | 0.00 | 0.00 | 92 | 1003.6 |
| 20260508110100 | 54 | 98 | 2.0 | 4.0 | 0.00 | 0.00 | 0.00 | 93 | 1003.6 |
| 20260508104604 | 54 | 98 | 1.0 | 3.0 | 0.00 | 0.00 | 0.00 | 93 | 1003.6 |
| 20260508103107 | 54 | 98 | 2.0 | 4.0 | 0.00 | 0.00 | 0.00 | 94 | 1003.5 |
| 20260508101558 | 54 | 98 | 3.0 | 6.0 | 0.00 | 0.00 | 0.00 | 93 | 1003.5 |
| 20260508100057 | 54 | 98 | 3.0 | 4.0 | 0.00 | 0.00 | 0.00 | 93 | 1003.5 |
| 20260508094555 | 54 | 98 | 0.0 | 3.0 | 0.00 | 0.00 | 0.00 | 93 | 1003.6 |
| 20260508093056 | 54 | 98 | 2.0 | 3.0 | 0.00 | 0.00 | 0.00 | 93 | 1003.7 |
| 20260508091553 | 54 | 98 | 2.0 | 6.0 | 0.00 | 0.00 | 0.00 | 93 | 1003.7 |
| 20260508090052 | 54 | 98 | 4.0 | 6.0 | 0.00 | 0.00 | 0.00 | 93 | 1003.9 |
| 20260508084549 | 54 | 112 | 2.0 | 6.0 | 0.00 | 0.00 | 0.00 | 92 | 1003.9 |
| 20260508083048 | 55 | 69 | 3.0 | 5.0 | 0.00 | 0.00 | 0.00 | 92 | 1003.8 |
| 20260508081545 | 55 | 69 | 2.0 | 5.0 | 0.00 | 0.00 | 0.00 | 91 | 1003.8 |
| 20260508080050 | 56 | 69 | 2.0 | 6.0 | 0.00 | 0.00 | 0.00 | 91 | 1003.9 |
| 20260508074541 | 55 | 103 | 3.0 | 4.0 | 0.00 | 0.00 | 0.00 | 88 | 1004.1 |
| 20260508073043 | 55 | 103 | 0.0 | 1.0 | 0.00 | 0.00 | 0.00 | 83 | 1004.4 |
| 20260508071541 | 56 | 92 | 6.0 | 8.0 | 0.00 | 0.00 | 0.00 | 85 | 1004.3 |
| 20260508070038 | 55 | 61 | 3.0 | 8.0 | 0.00 | 0.00 | 0.00 | 85 | 1004.3 |
| 20260508064556 | 55 | 49 | 1.0 | 5.0 | 0.00 | 0.00 | 0.00 | 84 | 1004.4 |
| 20260508063033 | 55 | 80 | 4.0 | 6.0 | 0.00 | 0.00 | 0.00 | 85 | 1004.6 |
| 20260508061531 | 55 | 73 | 3.0 | 5.0 | 0.00 | 0.00 | 0.00 | 85 | 1004.7 |
| 20260508060035 | 55 | 73 | 0.0 | 0.0 | 0.00 | 0.00 | 0.00 | 81 | 1004.8 |
| 20260508054540 | 56 | 73 | 2.0 | 9.0 | 0.00 | 0.00 | 0.00 | 81 | 1004.9 |
| 20260508053023 | 57 | 74 | 4.0 | 6.0 | 0.00 | 0.00 | 0.00 | 81 | 1004.8 |
| 20260508051525 | 56 | 79 | 4.0 | 6.0 | 0.00 | 0.00 | 0.00 | 82 | 1004.9 |
| 20260508050031 | 56 | 79 | 3.0 | 7.0 | 0.00 | 0.00 | 0.00 | 82 | 1005.0 |
| 20260508044520 | 56 | 46 | 2.0 | 4.0 | 0.00 | 0.00 | 0.00 | 81 | 1005.3 |
| 20260508043020 | 56 | 46 | 3.0 | 4.0 | 0.00 | 0.00 | 0.00 | 82 | 1005.2 |
| 20260508041516 | 56 | 12 | 0.0 | 3.0 | 0.00 | 0.00 | 0.00 | 80 | 1005.2 |
| 20260508040016 | 57 | 49 | 5.0 | 10.0 | 0.00 | 0.00 | 0.00 | 80 | 1005.1 |
| 20260508034523 | 56 | 16 | 1.0 | 6.0 | 0.00 | 0.00 | 0.00 | 79 | 1005.1 |
| 20260508033015 | 57 | 46 | 4.0 | 7.0 | 0.00 | 0.00 | 0.00 | 78 | 1004.6 |
| 20260508031514 | 57 | 36 | 4.0 | 6.0 | 0.00 | 0.00 | 0.00 | 77 | 1004.5 |
| 20260508030014 | 58 | 44 | 0.0 | 4.0 | 0.00 | 0.00 | 0.00 | 76 | 1004.5 |
| 20260508024519 | 59 | 61 | 2.0 | 6.0 | 0.00 | 0.00 | 0.00 | 76 | 1004.1 |
| 20260508023014 | 59 | 61 | 4.0 | 6.0 | 0.00 | 0.00 | 0.00 | 75 | 1003.9 |
| 20260508021512 | 59 | 79 | 4.0 | 10.0 | 0.00 | 0.00 | 0.00 | 74 | 1003.8 |
| 20260508020013 | 60 | 46 | 6.0 | 10.0 | 0.00 | 0.00 | 0.00 | 72 | 1003.8 |
| 20260508014512 | 60 | 54 | 5.0 | 11.0 | 0.00 | 0.00 | 0.00 | 70 | 1003.6 |
| 20260508013011 | 61 | 103 | 6.0 | 11.0 | 0.00 | 0.00 | 0.00 | 70 | 1003.6 |
| 20260508011511 | 62 | 101 | 7.0 | 13.0 | 0.00 | 0.00 | 0.00 | 68 | 1003.5 |
| 20260508010021 | 63 | 84 | 8.0 | 13.0 | 0.00 | 0.00 | 0.00 | 66 | 1003.3 |
| 20260508004516 | 64 | 66 | 8.0 | 15.0 | 0.00 | 0.00 | 0.00 | 65 | 1003.3 |
| 20260508003009 | 65 | 79 | 7.0 | 13.0 | 0.00 | 0.00 | 0.00 | 63 | 1003.3 |
| 20260508001510 | 65 | 59 | 8.0 | 15.0 | 0.00 | 0.00 | 0.00 | 63 | 1003.3 |
| 20260508000008 | 65 | 62 | 8.0 | 15.0 | 0.00 | 0.00 | 0.00 | 62 | 1003.3 |
| 20260507234513 | 66 | 49 | 9.0 | 17.0 | 0.00 | 0.00 | 0.00 | 62 | 1003.4 |
| 20260507233013 | 67 | 55 | 8.0 | 18.0 | 0.00 | 0.00 | 0.00 | 60 | 1003.2 |
| 20260507231506 | 67 | 46 | 8.0 | 16.0 | 0.00 | 0.00 | 0.00 | 59 | 1003.0 |
| 20260507230007 | 67 | 80 | 9.0 | 16.0 | 0.00 | 0.00 | 0.00 | 60 | 1003.0 |
| 20260507224509 | 66 | 76 | 11.0 | 16.0 | 0.00 | 0.00 | 0.00 | 61 | 1003.0 |
| 20260507223006 | 66 | 101 | 9.0 | 16.0 | 0.00 | 0.00 | 0.00 | 60 | 1003.3 |
| 20260507221501 | 66 | 63 | 6.0 | 16.0 | 0.00 | 0.00 | 0.00 | 62 | 1003.5 |
| 20260507220058 | 65 | 26 | 8.0 | 16.0 | 0.00 | 0.00 | 0.00 | 64 | 1003.7 |
| 20260507214557 | 64 | 35 | 7.0 | 18.0 | 0.00 | 0.00 | 0.00 | 64 | 1003.8 |
| 20260507213057 | 64 | 51 | 10.0 | 18.0 | 0.00 | 0.00 | 0.00 | 62 | 1003.8 |
| 20260507211601 | 64 | 65 | 10.0 | 16.0 | 0.00 | 0.00 | 0.00 | 62 | 1004.2 |
| 20260507210058 | 63 | 53 | 8.0 | 17.0 | 0.00 | 0.00 | 0.00 | 64 | 1004.2 |
| 20260507204556 | 63 | 74 | 9.0 | 17.0 | 0.00 | 0.00 | 0.00 | 65 | 1004.5 |
| 20260507203055 | 63 | 58 | 8.0 | 16.0 | 0.00 | 0.00 | 0.00 | 64 | 1004.8 |
| 20260507201556 | 63 | 46 | 8.0 | 15.0 | 0.00 | 0.00 | 0.00 | 66 | 1004.9 |
| 20260507200054 | 61 | 67 | 10.0 | 18.0 | 0.00 | 0.00 | 0.00 | 67 | 1004.9 |
| 20260507194553 | 60 | 80 | 9.0 | 18.0 | 0.00 | 0.00 | 0.00 | 69 | 1005.0 |
| 20260507193057 | 60 | 65 | 10.0 | 17.0 | 0.00 | 0.00 | 0.00 | 68 | 1005.2 |
| 20260507191552 | 59 | 65 | 12.0 | 18.0 | 0.00 | 0.00 | 0.00 | 70 | 1005.5 |
| 20260507190050 | 58 | 69 | 11.0 | 17.0 | 0.00 | 0.00 | 0.00 | 72 | 1005.7 |
| 20260507184551 | 58 | 24 | 10.0 | 16.0 | 0.00 | 0.00 | 0.00 | 74 | 1006.0 |
| 20260507183050 | 57 | 90 | 10.0 | 17.0 | 0.00 | 0.00 | 0.00 | 76 | 1006.1 |
| 20260507181550 | 56 | 88 | 10.0 | 16.0 | 0.00 | 0.00 | 0.00 | 77 | 1006.3 |
| 20260507180051 | 56 | 84 | 8.0 | 16.0 | 0.00 | 0.00 | 0.00 | 76 | 1006.2 |
| 20260507174616 | 57 | 21 | 9.0 | 17.0 | 0.00 | 0.00 | 0.00 | 73 | 1006.3 |
| 20260507173048 | 58 | 44 | 8.0 | 13.0 | 0.00 | 0.00 | 0.00 | 70 | 1006.5 |
| 20260507171602 | 57 | 31 | 9.0 | 15.0 | 0.00 | 0.00 | 0.00 | 70 | 1006.4 |
| 20260507170046 | 58 | 48 | 11.0 | 16.0 | 0.00 | 0.00 | 0.00 | 67 | 1006.5 |
| 20260507164552 | 56 | 36 | 7.0 | 16.0 | 0.00 | 0.00 | 0.00 | 68 | 1006.6 |
| 20260507163045 | 56 | 11 | 7.0 | 13.0 | 0.00 | 0.00 | 0.00 | 67 | 1006.8 |
| 20260507161550 | 56 | 72 | 8.0 | 16.0 | 0.00 | 0.00 | 0.00 | 67 | 1006.7 |
| 20260507160110 | 56 | 49 | 8.0 | 16.0 | 0.00 | 0.00 | 0.00 | 68 | 1006.8 |
| 20260507154544 | 55 | 42 | 8.0 | 15.0 | 0.00 | 0.00 | 0.00 | 70 | 1006.6 |
| 20260507153044 | 54 | 30 | 10.0 | 15.0 | 0.00 | 0.00 | 0.00 | 72 | 1006.8 |
| 20260507151543 | 52 | 68 | 9.0 | 15.0 | 0.00 | 0.00 | 0.00 | 76 | 1006.9 |
| 20260507150043 | 51 | 74 | 8.0 | 13.0 | 0.00 | 0.00 | 0.00 | 80 | 1006.8 |